Stations météo

Publicité
Saint-Brieuc, France (7120): Température de l'air & dewpoint: 06.12.2018 20:00:00 - 12.12.2018 20:00:00 (CET)Saint-Brieuc, France (7120): Température de l'air 5cm: 06.12.2018 20:00:00 - 12.12.2018 20:00:00 (CET)Saint-Brieuc, France (7120): Température de l'air -20cm & Température de l'air -100cm: 06.12.2018 20:00:00 - 12.12.2018 20:00:00 (CET)Saint-Brieuc, France (7120): Vitesse du vent & gusts: 06.12.2018 20:00:00 - 12.12.2018 20:00:00 (CET)Saint-Brieuc, France (7120): Direction du vent: 06.12.2018 20:00:00 - 12.12.2018 20:00:00 (CET)Saint-Brieuc, France (7120): reduced air pressure: 06.12.2018 20:00:00 - 12.12.2018 20:00:00 (CET)Saint-Brieuc, France (7120): visibility: 06.12.2018 20:00:00 - 12.12.2018 20:00:00 (CET)Saint-Brieuc, France (7120): Ensoleillement: 06.12.2018 20:00:00 - 12.12.2018 20:00:00 (CET)Saint-Brieuc, France (7120): Quantités de précipitations: 06.12.2018 20:00:00 - 12.12.2018 20:00:00 (CET)
Date & Time tt [°C] td [°C] tt 5cm [°C] tt -20cm [°C] tt -100cm [°C] ff [km/h] ff [knt] fx [km/h] fx [knt] dd ppp [hPa] vv [km] sd [min] rr [mm]
12.12.2018 20:00:00 3,5 2,3 2,9 8,1 11,0 12 6 19 10 SSE 1015,2 9 0 0,0
12.12.2018 19:00:00 3,7 2,8 3,0 8,2 11,0 8 4 19 11 S 1015,6 6 0 0,0
12.12.2018 18:00:00 4,6 3,6 4,2 8,2 11,0 13 7 27 14 SSE 1015,9 6 0 0,0
12.12.2018 17:00:00 5,1 3,8 4,8 8,2 11,0 18 10 28 15 SSE 1016,4 9 11 0,0
12.12.2018 16:00:00 5,4 4,7 5,5 8,2 11,0 14 8 25 14 S 1017,2 8 0 0,0
12.12.2018 15:00:00 5,7 4,8 6,0 8,1 11,0 12 7 23 12 S 1017,9 4,7 0 0,0
12.12.2018 14:00:00 5,8 5,1 6,1 8,1 11,0 13 7 23 12 S 1018,0 5 0 0,0
12.12.2018 13:00:00 5,7 4,7 6,0 8,0 11,0 12 6 21 11 SSE 1018,4 11 0 0,0
12.12.2018 12:00:00 5,4 4,5 5,7 8,0 11,0 13 7 23 12 SSE 1019,3 10 0 0,0
12.12.2018 11:00:00 5,2 4,5 5,1 8,0 11,0 15 8 28 15 S 1019,6 8 0 0,0
12.12.2018 10:00:00 4,8 4,2 4,5 8,0 11,1 11 6 22 12 S 1019,8 7 0 0,0
12.12.2018 09:00:00 4,6 4,0 4,4 8,0 11,1 14 7 22 12 SSE 1019,6 7 0 0,0
12.12.2018 08:00:00 4,5 3,8 4,3 8,1 11,1 14 8 24 13 SSE 1019,3 11 0 0,0
12.12.2018 07:00:00 4,6 3,9 4,3 8,1 11,1 11 6 26 14 S 1019,3 10 0 0,0
12.12.2018 06:00:00 4,8 3,9 4,5 8,1 11,1 16 8 29 16 S 1019,3 10 0 0,0
12.12.2018 05:00:00 4,8 3,9 4,5 8,2 11,1 15 8 32 17 S 1019,2 12 0 0,2
12.12.2018 04:00:00 5,0 4,3 4,8 8,2 11,1 18 10 29 16 S 1019,6 8 0 1,6
12.12.2018 03:00:00 5,6 5,0 5,3 8,2 11,1 17 9 33 18 SSE 1019,3 5 0 2,4
12.12.2018 02:00:00 6,0 5,1 5,6 8,2 11,1 15 8 33 18 S 1019,5 5 0 1,0
12.12.2018 01:00:00 5,9 4,9 5,4 8,3 11,1 20 11 31 17 SSE 1019,9 8 0 0,0
12.12.2018 00:00:00 6,0 4,8 5,5 8,3 11,1 13 7 23 12 SSE 1020,0 8 0 0,0
11.12.2018 23:00:00 6,6 5,2 6,1 8,3 11,1 14 7 31 17 SSE 1020,3 9 0 0,0
11.12.2018 22:00:00 6,7 5,5 6,0 8,3 11,1 10 6 31 17 SSE 1020,5 7 0 0,0
11.12.2018 21:00:00 6,3 5,3 5,6 8,3 11,1 18 10 28 15 SSE 1020,2 7 0 0,0
11.12.2018 20:00:00 6,2 5,2 5,4 8,4 11,1 11 6 23 12 S 1020,8 9 0 0,0
11.12.2018 19:00:00 6,2 5,0 5,6 8,4 11,2 18 10 29 16 SSE 1020,6 10 0 0,0
11.12.2018 18:00:00 6,5 4,7 5,5 8,4 11,1 11 6 19 10 SSE 1021,1 17 0 0,0
11.12.2018 17:00:00 7,4 4,9 6,8 8,3 11,2 10 5 29 15 SSE 1021,5 19 39 0,0
11.12.2018 16:00:00 8,1 4,9 8,5 8,2 11,1 12 7 32 17 S 1021,9 19 33 0,0
11.12.2018 15:00:00 8,7 5,3 9,4 8,1 11,2 13 7 27 15 S 1022,3 19 48 0,0
11.12.2018 14:00:00 8,5 5,2 9,6 8,0 11,2 21 11 35 19 SSE 1022,8 19 38 0,0
11.12.2018 13:00:00 8,7 5,6 10,2 7,9 11,2 15 8 32 17 SSE 1023,4 20 60 0,0
11.12.2018 12:00:00 8,0 5,5 8,1 7,9 11,2 16 9 28 15 SSE 1024,1 19 60 0,0
11.12.2018 11:00:00 6,6 4,8 4,4 7,9 11,2 15 8 26 14 S 1024,8 19 55 0,0
11.12.2018 10:00:00 4,8 3,8 2,7 7,9 11,2 7 4 14 8 SSE 1025,2 16 35 0,0
11.12.2018 09:00:00 4,0 3,3 1,2 8,0 11,2 8 5 14 7 S 1025,4 15 0 0,0
11.12.2018 08:00:00 3,7 3,1 1,3 8,1 11,2 8 4 9 5 SSE 1025,5 12 0 0,0
11.12.2018 07:00:00 4,5 3,9 2,1 8,2 11,2 6 4 11 6 S 1025,6 16 0 0,0
11.12.2018 06:00:00 4,2 3,6 2,4 8,2 11,2 8 4 11 6 S 1025,7 13 0 0,0
11.12.2018 05:00:00 5,2 4,8 2,0 8,3 11,2 6 3 10 6 S 1026,3 15 0 0,0
11.12.2018 04:00:00 5,2 4,0 2,7 8,4 11,2 6 4 10 6 S 1027,0 14 0 0,0
11.12.2018 03:00:00 5,8 4,8 2,2 8,5 11,3 6 3 13 7 SSW 1027,8 17 0 0,0
11.12.2018 02:00:00 5,8 4,8 2,6 8,6 11,2 5 3 12 7 SSW 1028,3 17 0 0,0
11.12.2018 01:00:00 5,7 4,7 1,4 8,7 11,3 5 3 9 5 S 1028,9 18 0 0,0
11.12.2018 00:00:00 5,7 4,5 2,0 8,8 11,3 5 3 9 5 SSW 1029,2 17 0 0,0
10.12.2018 23:00:00 6,4 5,2 2,8 8,9 11,3 6 3 9 5 SSW 1029,6 18 0 0,0
10.12.2018 22:00:00 5,6 4,4 1,4 9,0 11,3 5 3 6 4 S 1029,9 12 0 0,0
10.12.2018 21:00:00 6,6 5,1 1,9 9,2 11,3 4 2 7 4 S 1030,1 18 0 0,0
10.12.2018 20:00:00 7,0 5,1 1,4 9,2 11,3 5 3 7 4 WSW 1030,1 20 0 0,0
10.12.2018 19:00:00 7,2 4,3 3,3 9,3 11,3 4 2 10 5 WSW 1030,4 20 0 0,0
10.12.2018 18:00:00 7,8 4,7 3,9 9,3 11,3 8 5 10 5 W 1030,3 20 0 0,0
10.12.2018 17:00:00 8,8 5,0 6,3 9,2 11,3 7 4 11 6 WNW 1030,7 20 0 0,0
10.12.2018 16:00:00 10,4 6,2 10,5 9,1 11,3 7 4 16 9 WNW 1030,6 20 0 0,0
10.12.2018 15:00:00 10,6 6,2 11,0 9,0 11,3 9 5 19 10 WNW 1030,6 20 27 0,0
10.12.2018 14:00:00 10,8 6,7 11,1 8,9 11,3 10 5 18 10 W 1031,0 20 46 0,0
10.12.2018 13:00:00 10,3 7,2 10,8 8,8 11,3 11 6 20 11 W 1031,5 19 52 0,0
10.12.2018 12:00:00 9,2 6,8 8,3 8,7 11,3 13 7 18 10 W 1031,9 20 13 0,0
10.12.2018 11:00:00 8,1 6,2 7,1 8,8 11,3 12 6 20 11 WSW 1031,9 18 6 0,0
10.12.2018 10:00:00 7,0 5,8 4,6 8,8 11,3 9 5 16 9 W 1031,8 16 16 0,0
10.12.2018 09:00:00 5,8 4,8 2,9 8,9 11,3 11 6 18 10 W 1031,3 15 0 0,0
10.12.2018 08:00:00 4,7 4,0 2,0 9,0 11,3 11 6 16 9 W 1031,4 15 0 0,0
10.12.2018 07:00:00 4,3 3,3 2,6 9,1 11,3 14 7 16 9 W 1031,0 14 0 0,0
10.12.2018 06:00:00 6,0 4,5 4,9 9,1 11,3 12 7 20 11 W 1030,6 15 0 0,0
10.12.2018 05:00:00 6,5 5,3 5,1 9,2 11,3 16 8 23 13 W 1030,2 14 0 0,0
10.12.2018 04:00:00 6,0 5,0 4,5 9,3 11,3 15 8 20 11 W 1030,6 14 0 0,0
10.12.2018 03:00:00 6,2 5,0 4,9 9,4 11,3 16 8 20 11 W 1030,1 14 0 0,0
10.12.2018 02:00:00 6,6 5,1 5,0 9,5 11,3 13 7 20 11 W 1030,1 15 0 0,0
10.12.2018 01:00:00 6,9 5,0 5,7 9,6 11,3 14 8 22 12 W 1029,7 14 0 0,0
10.12.2018 00:00:00 7,8 5,4 6,7 9,7 11,3 14 7 20 11 W 1029,4 15 0 0,0
09.12.2018 23:00:00 8,0 5,6 6,8 9,7 11,3 15 8 25 14 WNW 1029,0 14 0 0,0
09.12.2018 22:00:00 8,4 6,0 7,5 9,8 11,3 16 9 28 15 WNW 1028,5 14 0 0,0
09.12.2018 21:00:00 9,2 6,3 7,8 9,9 11,3 21 12 34 18 WNW 1027,7 14 0 0,0
09.12.2018 20:00:00 9,0 6,3 8,0 9,9 11,3 23 12 38 21 WNW 1026,9 13 0 0,0
09.12.2018 19:00:00 9,0 6,6 8,3 9,9 11,3 23 13 41 22 WNW 1025,9 13 0 0,0
09.12.2018 18:00:00 9,6 6,9 9,0 10,0 11,3 25 14 45 24 WNW 1025,0 14 0 0,0
09.12.2018 17:00:00 10,2 6,9 9,7 10,0 11,4 26 14 61 33 WNW 1023,8 14 0 0,0
09.12.2018 16:00:00 10,7 6,8 10,4 9,9 11,3 29 15 59 32 WNW 1022,7 15 6 0,0
09.12.2018 15:00:00 10,9 7,0 10,8 9,9 11,3 37 20 74 40 WNW 1021,4 13 8 0,0
09.12.2018 14:00:00 10,9 7,0 9,9 9,8 11,3 36 19 73 39 WNW 1020,5 13 7 0,0
09.12.2018 13:00:00 10,2 7,6 9,3 9,8 11,4 42 23 65 35 WNW 1020,1 11 9 0,0
09.12.2018 12:00:00 10,6 7,5 9,1 9,7 11,4 45 24 72 39 WNW 1019,1 10 32 0,2
09.12.2018 11:00:00 10,7 7,6 8,8 9,7 11,4 39 21 63 34 WNW 1018,5 12 12 0,4
09.12.2018 10:00:00 9,9 7,5 8,4 9,7 11,4 35 19 59 32 WNW 1017,9 13 15 0,2
09.12.2018 09:00:00 9,5 7,1 8,1 9,7 11,4 34 18 63 34 W 1016,9 8 0 0,0
09.12.2018 08:00:00 10,0 6,2 7,8 9,8 11,4 34 19 61 33 W 1015,8 11 0 0,0
09.12.2018 07:00:00 9,0 6,3 7,7 9,8 11,4 32 17 57 31 W 1015,6 8 0 0,2
09.12.2018 06:00:00 9,5 5,3 8,5 9,9 11,3 34 19 62 33 W 1015,0 12 0 0,0
09.12.2018 05:00:00 9,1 4,5 8,3 9,9 11,4 35 19 59 32 W 1014,8 15 0 0,0
09.12.2018 04:00:00 9,5 4,7 7,7 10,0 11,4 35 19 56 31 W 1014,6 14 0 0,0
09.12.2018 03:00:00 9,5 4,7 8,4 10,1 11,4 36 19 58 31 W 1014,1 12 0 0,0
09.12.2018 02:00:00 9,6 5,2 8,1 10,2 11,4 41 22 75 41 W 1013,7 14 0 0,0
09.12.2018 01:00:00 9,5 6,4 7,9 10,2 11,4 35 19 66 36 W 1013,3 13 0 0,4
09.12.2018 00:00:00 9,5 7,6 8,5 10,2 11,4 40 22 69 37 WNW 1013,2 4,9 0 2,0
08.12.2018 23:00:00 10,7 7,4 9,1 10,3 11,4 35 19 62 33 W 1012,4 7 0 0,0
08.12.2018 22:00:00 11,1 6,4 10,2 10,3 11,4 39 21 72 39 W 1012,2 11 0 0,0
08.12.2018 21:00:00 11,6 6,9 10,7 10,4 11,4 41 22 68 37 W 1012,4 11 0 0,0
08.12.2018 20:00:00 12,0 7,7 11,0 10,4 11,4 39 21 70 38 W 1012,0 12 0 0,0
08.12.2018 19:00:00 12,4 8,5 11,0 10,3 11,4 42 23 80 43 W 1011,9 13 0 0,0
08.12.2018 18:00:00 12,4 9,0 11,7 10,2 11,4 37 20 66 36 W 1011,8 14 0 0,0
08.12.2018 17:00:00 12,9 9,9 12,0 10,1 11,4 43 23 69 37 W 1011,6 20 0 0,0
08.12.2018 16:00:00 13,0 10,7 12,5 10,0 11,4 39 21 68 37 WSW 1010,9 19 2 0,0
08.12.2018 15:00:00 12,6 10,5 11,8 9,8 11,4 32 18 59 32 WSW 1012,1 20 0 0,0
08.12.2018 14:00:00 11,8 9,9 11,1 9,7 11,4 33 18 59 32 WSW 1013,6 14 0 0,0
08.12.2018 13:00:00 11,5 9,6 10,7 9,6 11,4 28 15 46 25 WSW 1014,6 15 0 0,0
08.12.2018 12:00:00 10,9 9,5 10,5 9,6 11,4 22 12 42 23 WSW 1016,1 14 0 0,0
08.12.2018 11:00:00 10,5 8,6 9,6 9,5 11,4 21 11 41 22 WSW 1016,5 19 0 0,0
08.12.2018 10:00:00 10,1 7,2 8,6 9,5 11,4 18 10 39 21 SW 1016,8 16 8 0,0
08.12.2018 09:00:00 9,5 6,2 8,4 9,5 11,4 26 14 59 32 WSW 1017,3 16 0 0,0
08.12.2018 08:00:00 9,4 5,8 8,5 9,6 11,4 31 17 46 25 W 1017,3 17 0 0,0
08.12.2018 07:00:00 9,0 6,1 8,0 9,6 11,4 27 15 51 27 W 1016,9 18 0 0,0
08.12.2018 06:00:00 8,9 5,5 7,8 9,6 11,3 35 19 55 30 W 1016,7 20 0 0,0
08.12.2018 05:00:00 8,6 5,5 7,4 9,7 11,4 34 18 50 27 W 1016,8 18 0 0,0
08.12.2018 04:00:00 8,5 5,2 7,6 9,8 11,3 33 18 55 30 W 1017,0 20 0 0,0
08.12.2018 03:00:00 8,6 5,3 7,0 9,8 11,4 35 19 53 29 W 1016,8 20 0 0,2
08.12.2018 02:00:00 8,3 5,8 7,0 9,9 11,4 26 14 42 23 WSW 1017,2 15 0 0,0
08.12.2018 01:00:00 7,9 4,7 6,8 10,0 11,3 26 14 41 22 WSW 1017,5 20 0 0,0
08.12.2018 00:00:00 7,8 4,7 5,9 10,1 11,4 29 15 42 23 WSW 1017,0 18 0 0,0
07.12.2018 23:00:00 7,2 5,0 5,8 10,2 11,3 23 13 45 24 WSW 1017,2 18 0 0,2
07.12.2018 22:00:00 7,6 4,4 5,7 10,4 11,3 25 14 40 22 WSW 1017,0 20 0 0,0
07.12.2018 21:00:00 7,2 4,7 5,4 10,5 11,3 25 13 44 24 W 1017,1 19 0 0,0
07.12.2018 20:00:00 7,0 4,6 5,2 10,6 11,4 29 15 55 30 W 1016,6 13 0 0,2
07.12.2018 19:00:00 6,8 3,9 5,0 10,8 11,3 16 9 35 19 WSW 1016,2 20 0 0,0
07.12.2018 18:00:00 6,8 3,8 5,0 10,9 11,3 26 14 39 21 W 1015,1 20 0 0,0
07.12.2018 17:00:00 6,3 3,6 5,1 11,0 11,3 26 14 70 38 W 1014,4 20 12 0,6
07.12.2018 16:00:00 9,1 4,9 7,4 11,1 11,3 28 15 53 29 W 1013,1 20 28 0,0
07.12.2018 15:00:00 9,6 5,0 7,9 11,1 11,3 31 17 64 35 W 1011,8 20 18 0,0
07.12.2018 14:00:00 9,9 6,1 7,0 11,2 11,3 33 18 64 35 W 1010,7 19 21 0,6
07.12.2018 13:00:00 10,4 7,1 8,7 11,3 11,3 36 20 64 35 W 1010,6 10 56 0,2
07.12.2018 12:00:00 10,2 7,3 8,5 11,3 11,3 30 16 45 24 W 1009,8 16 20 0,0
07.12.2018 11:00:00 8,8 7,1 8,0 11,3 11,3 29 16 67 36 W 1009,9 16 0 1,2
07.12.2018 10:00:00 9,9 8,3 9,5 11,3 11,3 39 21 87 47 WSW 1009,0 3,5 0 2,5
07.12.2018 09:00:00 12,3 11,0 11,0 11,4 11,3 22 12 46 25 SSW 1007,8 20 0 2,0
07.12.2018 08:00:00 11,7 10,4 10,8 11,4 11,3 20 11 51 28 SSW 1009,9 8 0 0,2
07.12.2018 07:00:00 12,0 8,8 11,1 11,4 11,3 24 13 70 38 SW 1011,5 20 0 0,0
07.12.2018 06:00:00 12,3 9,3 11,4 11,4 11,3 26 14 61 33 SW 1012,4 20 0 0,0
07.12.2018 05:00:00 12,2 10,3 11,3 11,4 11,3 25 14 53 29 SW 1013,5 20 0 0,0
07.12.2018 04:00:00 12,3 10,7 11,3 11,4 11,3 24 13 50 27 SW 1015,0 12 0 0,0
07.12.2018 03:00:00 12,1 10,8 11,4 11,5 11,3 26 14 48 26 SW 1016,1 7 0 0,0
07.12.2018 02:00:00 12,3 10,7 11,5 11,4 11,3 26 14 50 27 SW 1016,8 12 0 0,0
07.12.2018 01:00:00 12,5 10,2 11,9 11,5 11,3 26 14 51 27 WSW 1017,4 20 0 0,0
07.12.2018 00:00:00 12,4 10,5 11,7 11,5 11,3 20 11 40 22 SW 1018,1 20 0 0,0
06.12.2018 23:00:00 12,5 10,4 12,0 11,5 11,2 15 8 31 17 SW 1019,0 20 0 0,0
06.12.2018 22:00:00 12,5 10,9 12,0 11,5 11,2 15 8 28 15 SW 1019,7 20 0 0,0
06.12.2018 21:00:00 12,4 10,8 12,0 11,5 11,3 16 9 32 17 SW 1020,4 14 0 0,0
06.12.2018 20:00:00 12,3 10,7 11,6 11,5 11,2 17 9 35 19 SW 1020,7 20 0 0,0

tt = Température de l'air
td = dewpoint
tt 5cm = Température de l'air 5cm
tt -20cm = Température de l'air -20cm
tt -100cm = Température de l'air -100cm
ff = Vitesse du vent
fx = gusts
dd = Direction du vent
ppp = reduced air pressure
vv = visibility
sd = Ensoleillement
rr = Quantités de précipitations

stations d'obs. à proximité